Location: Newark
(7.0858°N, 171.3717°E)
Time: 08:12:26
(UTC+00:00)

Courier 1B Rocket - Pass Details

Date: 30 November 2020
Orbit: 920 x 1202 km, 28.2° (Epoch: 17 January)

Event Time Altitude Azimuth Distance (km) Brightness Sun altitude
Rises 18:57:36 0° 303° (WNW) 4,089 7.6 5.2°
Reaches altitude 10° 19:02:14 10° 326° (NNW) 3,122 7.2 6.3°
Maximum altitude 19:06:03 14° 356° (N) 2,802 7.2 7.1°
Drops below altitude 10° 19:09:50 10° 26° (NNE) 3,081 7.7 8.0°
Sets 19:14:21 0° 50° (NE) 3,998 8.6 9.0°
